EST,Max TemperatureF,Mean TemperatureF,Min TemperatureF,Max Dew PointF,MeanDew PointF,Min DewpointF,Max Humidity, Mean Humidity, Min Humidity, Max Sea Level PressureIn, Mean Sea Level PressureIn, Min Sea Level PressureIn, Max VisibilityMiles, Mean VisibilityMiles, Min VisibilityMiles, Max Wind SpeedMPH, Mean Wind SpeedMPH, Max Gust SpeedMPH,PrecipitationIn, CloudCover, Events, WindDirDegrees
2012-11-1,55,48,42,37,35,34,76,62,44,29.85,29.78,29.74,10,10,10,10,3,16,0.00,2,,279
2012-11-2,59,50,42,37,34,32,81,50,38,29.94,29.86,29.82,10,10,10,9,3,,0.00,2,,299
2012-11-3,57,45,33,41,33,28,100,67,36,30.10,30.05,29.97,10,10,10,8,2,,0.00,0,,311
2012-11-4,50,44,37,45,38,36,100,79,62,30.10,30.04,29.99,10,10,10,10,3,,0.00,6,,48
2012-11-5,51,43,35,45,33,30,100,65,44,30.13,30.08,30.02,10,9,7,9,2,,0.00,2,,9
2012-11-6,44,40,37,37,32,30,100,68,57,30.14,30.06,29.92,10,9,5,10,3,16,0.00,4,,355
2012-11-7,50,44,37,39,33,32,100,72,54,29.94,29.90,29.84,10,9,4,9,4,,0.00,6,Rain,351
2012-11-8,59,49,39,39,23,16,100,38,19,30.11,30.01,29.95,10,10,7,9,2,,0.00,1,,311
2012-11-9,60,45,30,36,31,23,100,63,31,30.27,30.21,30.11,10,10,10,7,1,,0.00,0,,297
2012-11-10,69,56,44,37,34,30,76,44,24,30.40,30.34,30.27,10,10,7,8,2,,0.00,0,,206
2012-11-11,71,56,41,52,45,37,94,65,35,30.50,30.44,30.39,10,10,5,9,3,,0.00,0,,176
2012-11-12,73,68,62,64,58,55,100,67,53,30.44,30.32,30.21,10,8,0,13,3,17,0.00,1,Fog,158
2012-11-13,,,,,,,,,,30.42,30.31,30.17,10,9,4,10,6,18,0.14,8,Rain,5
2012-11-14,50,41,32,39,32,30,100,73,50,30.49,30.43,30.39,10,10,10,14,7,18,0.00,0,,11
2012-11-15,46,40,35,45,35,32,100,81,70,30.39,30.31,30.24,10,9,4,9,4,,0.12,6,Rain,356
2012-11-16,53,45,37,45,36,34,100,66,47,30.40,30.31,30.26,10,10,10,10,4,20,0.00,3,,2
2012-11-17,55,45,35,37,33,30,100,59,38,30.49,30.45,30.39,10,10,5,15,5,20,0.00,1,,13
2012-11-18,57,50,44,46,44,37,100,79,63,30.47,30.41,30.35,10,10,7,16,10,24,0.00,8,,14
2012-11-19,55,52,48,45,44,43,82,76,67,30.35,30.27,30.18,10,10,10,13,10,20,0.00,8,,3
2012-11-20,57,52,46,46,44,43,100,78,59,30.18,30.12,30.07,10,10,7,9,4,,0.00,5,,2
2012-11-21,57,44,32,46,35,32,100,68,41,30.19,30.14,30.10,10,8,2,13,2,17,0.00,0,,359
2012-11-22,59,46,32,34,30,25,100,69,27,30.25,30.19,30.16,10,10,10,13,2,17,0.00,0,,354
2012-11-23,64,47,30,37,34,30,100,49,30,30.17,30.02,29.88,10,10,7,8,1,,0.00,0,,225
2012-11-24,53,42,28,34,23,18,69,48,34,30.13,30.00,29.88,10,10,10,9,4,17,0.00,0,,318
2012-11-25,50,37,24,25,21,18,80,49,30,30.18,30.09,30.03,10,10,10,12,2,16,0.00,0,,225
2012-11-26,64,47,30,30,26,21,87,50,21,30.20,30.15,30.08,10,10,10,5,1,,0.00,0,,269
2012-11-27,57,49,41,45,33,28,100,56,36,30.25,30.17,30.12,10,10,5,9,2,,0.02,7,Rain,339
2012-11-28,50,41,32,39,32,30,100,69,47,30.40,30.32,30.25,10,8,3,6,1,,0.00,1,,326
2012-11-29,51,42,32,32,28,23,100,64,33,30.48,30.42,30.38,10,10,7,4,0,,0.00,0,,216
2012-11-30,60,46,32,39,32,30,100,62,34,30.41,30.36,30.30,10,9,4,7,1,,0.00,0,,210